Regional Weather Roundup
Issued by NWS Sterling, VA

Home | Current Version | Previous Version | Text Only | Print | Product List | Glossary On
Versions: 1 2 3 4 5 6 7 8 9 10 11 12 13 14 15 16 17 18 19 20 21 22 23 24 25 26 27 28 29 30 31 32 33 34 35 36 37 38 39 40 41 42 43 44 45 46 47 48 49 50
000
ASUS41 KLWX 301810
RWRLWX

REGIONAL WEATHER ROUNDUP
NATIONAL WEATHER SERVICE BALTIMORE MD/WASHINGTON DC
200 PM EDT SAT JUL 30 2016

Note: "FAIR" indicates few or no clouds below 12,000 feet
with no significant weather and/or obstructions to visibility.
 TC=TEMPERATURE CELSIUS

 * =Non NWS site. Station does not report precipitation (e.g. rain,
    snow, etc.), thunder, or fog.

DCZ001-MDZ009-015-VAZ040>042-051-053>054-301900-
WASHINGTON METRO

CITY           SKY/WX    TMP DP  RH WIND       PRES   REMARKS
WASHINGTON NAT PTSUNNY   88  74  63 S14       29.96F HX  96
DULLES         PTSUNNY   84  71  65 S9        29.96F
ANDREWS AFB    MOSUNNY   87  73  62 S14       29.96F HX  94
FT BELVOIR     FAIR      86  75  69 S9G18     29.96F HX  95
LEESBURG*      PTSUNNY   88  75  66 S13G23    29.96F HX  97
MANASSAS*      PTSUNNY   84  75  74 S14       29.96F HX  92
GAITHERSBURG*  MOSUNNY   82  73  74 S8        30.01F

$$

MDZ006>007-011-014-301900-
BALTIMORE METRO

CITY           SKY/WX    TMP DP  RH WIND       PRES   REMARKS
BWI AIRPORT    LGT RAIN  84  74  71 SE8G18    29.95F HX  91
MD SCIENCE CTR   N/A     89  70  53 MISG      29.95F HX  94
MARTIN STATE   PTSUNNY   88  79  74 S10       29.97F HX 102
ANNAPOLIS      CLOUDY   N/A N/A N/A CALM      29.97S
FORT MEADE*    CLOUDY    82  72  69 S6        29.98S

$$

MDZ012-015-019>023-301900-
MARYLAND EASTERN SHORE

CITY           SKY/WX    TMP DP  RH WIND       PRES   REMARKS
OCEAN CITY     CLOUDY    84  72  67 S8        30.02S
SALISBURY      SUNNY     84  68  58 SE9       30.00F
BAY BRIDGE AP* CLOUDY    86  73  66 S14G20    29.97S HX  93
CAMBRIDGE*     CLOUDY    82  70  65 S8        29.98F
EASTON*        PTSUNNY   88  77  70 S12       30.01F HX 100

$$

MDZ017>025-301900-
SOUTHERN MARYLAND

CITY           SKY/WX    TMP DP  RH WIND       PRES   REMARKS
PATUXENT RIVER PTSUNNY   83  72  69 VRB6      29.98S
ST INIGOES     PTSUNNY   83  75  77 SE8       29.98F HX  90
LEONARDTOWN*     N/A     81  73  78 MISG        N/A

$$

MDZ003>005-301900-
NORTH CENTRAL MARYLAND

CITY           SKY/WX    TMP DP  RH WIND       PRES   REMARKS
FREDERICK*     CLOUDY    77  77 100 SE9       29.98F
HAGERSTOWN APT HVY RAIN  79  73  82 SE8       29.95F

$$

MDZ501>502-301900-
WESTERN MARYLAND

CITY           SKY/WX    TMP DP  RH WIND       PRES   REMARKS
OAKLAND*       PTSUNNY   73  64  73 SW8       30.06F
CUMBERLAND*    PTSUNNY   86  72  62 S7        29.96F HX  92

$$

VAZ025>031-301900-
SHENANDOAH VALLEY

CITY           SKY/WX    TMP DP  RH WIND       PRES   REMARKS
WINCHESTER*    FAIR      88  73  62 S12       29.93F HX  96
FRONT ROYAL*   MOCLDY    88  75  66 S9        29.92F HX  97
LURAY*         NOT AVBL
NEW MARKET*    FAIR     N/A N/A N/A S8        29.91F
STAUNTON*      FAIR      86  68  54 SW14      29.98F HX  90
WAYNESBORO*    FAIR      87  66  50 W10       29.99F

$$

WVZ021-048>050-054>055-301900-
EASTERN WEST VIRGINIA PANHANDLE

CITY           SKY/WX    TMP DP  RH WIND       PRES   REMARKS
MARTINSBURG    PTSUNNY   86  73  65 S13G21    29.92F HX  93
PETERSBURG*    FAIR      87  72  60 CALM      29.94F HX  94

$$

VAZ036>039-050-301900-
CENTRAL FOOTHILLS

CITY           SKY/WX    TMP DP  RH WIND       PRES   REMARKS
CHARLOTTESVILL PTSUNNY   89  72  56 SE13G21   29.95F HX  96
CULPEPER*      FAIR      86  76  71 S5        29.96F HX  95
ORANGE*          N/A     86  73  66 SE7       29.98F HX  93
GORDONSVILLE*  MOCLDY    85  74  69 S6        29.96F HX  93
WARRENTON*     FAIR      87  69  54 S9        29.96F HX  91

$$

VAZ055>057-301900-
NORTH AND CENTRAL PIEDMONT

CITY           SKY/WX    TMP DP  RH WIND       PRES   REMARKS
FREDERICKSBRG* FAIR      85  75  71 S13       29.96F HX  94
STAFFORD*      PTSUNNY   83  73  71 SE6       30.01F HX  90

$$

NCZ024-NYZ072-PAZ021-071-VAZ022-071-301900-
OTHER REGIONAL OBSERVATIONS

CITY           SKY/WX    TMP DP  RH WIND       PRES   REMARKS
NEW YORK CITY  CLOUDY    79  69  71 VRB6      30.03F
PHILADELPHIA   CLOUDY    86  70  58 S15       29.97F HX  90
PITTSBURGH     CLOUDY    73  67  81 CALM      29.97F
ROANOKE        FAIR      87  69  54 W8        29.99F HX  91
RICHMOND       PTSUNNY   75  72  90 E6        29.98F
RALEIGH        PTSUNNY   93  73  52 SW15      29.96F HX 102

$$

ANZ530>537-301900-
MARINE OBSERVATIONS

STATION/POSITION TIME  TEMP    WIND        PRES
                       AIR SEA DIR/SP/G
                 (UTC) (F)     (DEG/KT/KT) (MB)
THOMAS PT LIGHT  1800   83 84  180/ 22/ 23 1015.8F
BALT KEY BRIDGE  1742   85     140/ 14/ 17 1014.1F
COVE POINT       1742   82     190/ 18/ 20 1015.9F
LEWISETTA        1742   83 86  160/  6/  8 1014.9F
SOLOMONS ISLAND  1742   82 85  160/ 11/ 14   N/A
PINEY POINT      1742          160/ 14/ 16   N/A

$$




USA.gov is the U.S. government's official web portal to all federal, state and local government web resources and services.